Omaha Millard, NE

1:21 PM CDT on June 25, 2017 (GMT -0500)
Millard Municipal

Weather History for KMLE - February, 2013

Change the Weather History Date:

Thursday, February 21, 2013

  Actual Average (KOFF) Record (KOFF)
Temperature  
Mean Temperature 23 °F -  
Max Temperature 25 °F 38 °F 123 °F (2017)
Min Temperature 21 °F 21 °F 6 °F (2008)
Degree Days  
Heating Degree Days 42    
Moisture  
Dew Point 17 °F    
Average Humidity 81    
Maximum Humidity 100    
Minimum Humidity 54    
Precipitation  
Precipitation 0.17 in - - ()
Sea Level Pressure  
Sea Level Pressure 30.01 in    
Wind  
Wind Speed 8 mph (ENE)    
Max Wind Speed 14 mph    
Max Gust Speed 24 mph    
Visibility 5 miles    
Events Snow    
Averages and records for this station are not official NWS values.
T = Trace of Precipitation, MM = Missing Value Source: NWS Daily Summary

Daily Weather History Graph

Daily Weather History Graph

Search for Another Location

Airport or City:

Trip Planner

Search our weather history database for the weather conditions in past years. The results will help you decide how hot, cold, wet, or windy it might be!

Date:

Astronomy

Feb. 21, 2013 Rise Set
Actual Time 7:10 AM CST 6:06 PM CST
Civil Twilight 6:42 AM CST 6:34 PM CST
Nautical Twilight 6:10 AM CST 7:06 PM CST
Astronomical Twilight 5:38 AM CST 7:38 PM CST
Moon 2:20 PM CST (2/21) 4:17 AM CST (2/21)
Length of Visible Light 11h 51m
Length of Day
10h 55m
Waxing Gibbous, 84% of the Moon is Illuminated
Feb 21
Waxing Gibbous
Feb 25
Full
Mar 4
Last Quarter
Mar 11
New
Mar 19
First Quarter

Hourly Weather History & Observations

Time (CST) Temp. Windchill Dew Point Humidity Pressure Visibility Wind Dir Wind Speed Gust Speed Precip Events Conditions
12:15 AM 23.0 °F 12.4 °F 8.4 °F 54% 30.22 in 10.0 mi East 10.4 mph 16.1 mph N/A   Overcast
12:35 AM 23.0 °F 13.9 °F 8.4 °F 54% 30.22 in 10.0 mi East 8.1 mph - N/A   Overcast
12:55 AM 23.0 °F 14.7 °F 8.6 °F 54% 30.24 in 10.0 mi East 6.9 mph - N/A   Overcast
1:15 AM 23.0 °F 14.7 °F 8.6 °F 54% 30.24 in 10.0 mi East 6.9 mph - N/A   Overcast
1:35 AM 23.0 °F 14.7 °F 8.4 °F 54% 30.23 in 10.0 mi ESE 6.9 mph - N/A   Overcast
1:55 AM 22.8 °F 15.5 °F 8.4 °F 54% 30.22 in 10.0 mi East 5.8 mph - N/A   Overcast
2:15 AM 22.6 °F 13.4 °F 8.4 °F 55% 30.18 in 10.0 mi East 8.1 mph - N/A   Overcast
2:35 AM 22.6 °F 14.3 °F 8.6 °F 55% 30.19 in 10.0 mi East 6.9 mph - N/A   Mostly Cloudy
2:55 AM 22.6 °F 14.3 °F 8.8 °F 55% 30.17 in 10.0 mi East 6.9 mph - N/A   Overcast
3:15 AM 22.6 °F 15.3 °F 8.8 °F 55% 30.14 in 10.0 mi East 5.8 mph - N/A   Overcast
3:35 AM 22.5 °F 14.1 °F 9.1 °F 57% 30.13 in 10.0 mi East 6.9 mph - N/A   Overcast
3:55 AM 22.5 °F 13.2 °F 9.5 °F 58% 30.16 in 10.0 mi East 8.1 mph - N/A   Overcast
4:15 AM 22.3 °F 13.0 °F 9.7 °F 58% 30.15 in 10.0 mi East 8.1 mph - N/A   Overcast
4:35 AM 22.1 °F 12.8 °F 10.2 °F 60% 30.13 in 10.0 mi East 8.1 mph 16.1 mph N/A   Overcast
4:55 AM 22.3 °F 12.2 °F 10.4 °F 60% 30.11 in 10.0 mi East 9.2 mph 16.1 mph N/A   Overcast
5:15 AM 22.1 °F 12.8 °F 10.4 °F 61% 30.10 in 10.0 mi East 8.1 mph 16.1 mph N/A   Overcast
5:55 AM 22.5 °F 12.4 °F 10.9 °F 61% 30.13 in 10.0 mi East 9.2 mph - N/A   Overcast
6:15 AM 22.5 °F 15.1 °F 11.1 °F 62% 30.12 in 10.0 mi East 5.8 mph - N/A   Overcast
6:35 AM 22.1 °F 12.0 °F 11.3 °F 63% 30.11 in 10.0 mi East 9.2 mph - N/A   Overcast
6:55 AM 22.5 °F 12.4 °F 11.5 °F 63% 30.11 in 10.0 mi East 9.2 mph 18.4 mph N/A   Overcast
7:15 AM 22.5 °F 15.1 °F 11.8 °F 64% 30.11 in 10.0 mi East 5.8 mph - N/A   Overcast
7:35 AM 22.5 °F 13.2 °F 11.8 °F 64% 30.09 in 10.0 mi East 8.1 mph 16.1 mph N/A   Overcast
7:55 AM 22.5 °F 16.3 °F 12.2 °F 65% 30.09 in 10.0 mi East 4.6 mph - N/A   Overcast
8:15 AM 22.6 °F 15.3 °F 12.2 °F 64% 30.10 in 10.0 mi East 5.8 mph - N/A   Overcast
8:35 AM 23.0 °F 13.1 °F 12.7 °F 65% 30.14 in 10.0 mi East 9.2 mph 16.1 mph N/A   Overcast
8:55 AM 22.8 °F 13.6 °F 12.9 °F 66% 30.13 in 10.0 mi East 8.1 mph - N/A   Overcast
9:15 AM 22.8 °F 13.6 °F 13.1 °F 66% 30.11 in 10.0 mi East 8.1 mph 18.4 mph N/A   Overcast
9:35 AM 23.0 °F 12.4 °F 13.1 °F 66% 30.10 in 10.0 mi East 10.4 mph 18.4 mph N/A   Overcast
9:55 AM 23.4 °F 15.2 °F 13.5 °F 66% 30.09 in 10.0 mi East 6.9 mph - N/A   Overcast
10:15 AM 23.5 °F 11.8 °F 13.1 °F 64% 30.07 in 10.0 mi East 12.7 mph 21.9 mph N/A   Overcast
10:35 AM 24.4 °F 14.2 °F 13.8 °F 64% 30.05 in 10.0 mi East 10.4 mph 19.6 mph N/A   Overcast
10:55 AM 25.2 °F 17.3 °F 19.4 °F 79% 30.04 in 10.0 mi East 6.9 mph 20.7 mph N/A   Overcast
11:15 AM 25.7 °F 14.6 °F 19.6 °F 78% 30.04 in 10.0 mi East 12.7 mph 19.6 mph N/A   Overcast
11:35 AM 24.6 °F 12.7 °F 21.0 °F 86% 30.04 in 3.0 mi East 13.8 mph 24.2 mph N/A Snow Light Snow
11:55 AM 23.9 °F 15.0 °F 22.8 °F 96% 30.01 in 2.0 mi ENE 8.1 mph 21.9 mph N/A Snow Light Snow
12:15 PM 23.4 °F 12.8 °F 23.4 °F 100% 30.00 in 1.2 mi ENE 10.4 mph 18.4 mph N/A Snow Light Snow
12:35 PM 23.0 °F 13.9 °F 23.0 °F 100% 29.98 in 0.5 mi NE 8.1 mph 19.6 mph N/A Snow Light Snow
12:55 PM 23.0 °F 13.9 °F 23.0 °F 100% 29.98 in 0.8 mi ENE 8.1 mph 16.1 mph N/A Snow Light Snow
1:15 PM 23.0 °F 18.4 °F 23.0 °F 100% 29.99 in 0.5 mi ENE 3.5 mph - 0.01 in Snow Light Snow
1:35 PM 22.6 °F 12.6 °F 22.6 °F 100% 29.96 in 0.5 mi NE 9.2 mph 17.3 mph 0.01 in Snow Snow
1:55 PM 22.6 °F 12.6 °F 22.6 °F 100% 29.96 in 0.5 mi ENE 9.2 mph - 0.02 in Snow Light Snow
2:15 PM 22.8 °F 15.5 °F 22.8 °F 100% 29.95 in 0.5 mi NE 5.8 mph - 0.01 in Snow Light Snow
2:35 PM 23.0 °F 13.9 °F 23.0 °F 100% 29.94 in 0.5 mi ENE 8.1 mph 18.4 mph 0.01 in Snow Snow
2:55 PM 23.0 °F 13.1 °F 23.0 °F 100% 29.94 in 0.5 mi NE 9.2 mph 18.4 mph 0.01 in Snow Snow
3:15 PM 23.0 °F 13.9 °F 23.0 °F 100% 29.93 in 0.5 mi NE 8.1 mph 17.3 mph 0.01 in Snow Snow
3:35 PM 23.0 °F 13.9 °F 23.0 °F 100% 29.93 in 0.5 mi NE 8.1 mph - 0.02 in Snow Snow
3:55 PM 23.0 °F 13.1 °F 23.0 °F 100% 29.92 in 0.2 mi ENE 9.2 mph - 0.02 in Snow Snow
4:15 PM 22.8 °F 12.9 °F 22.8 °F 100% 29.91 in 0.5 mi NE 9.2 mph - 0.01 in Snow Snow
4:35 PM 22.5 °F 15.1 °F 22.5 °F 100% 29.91 in 0.5 mi NE 5.8 mph 16.1 mph 0.01 in Snow Snow
4:55 PM 22.5 °F 13.2 °F 22.5 °F 100% 29.90 in 0.8 mi NE 8.1 mph - 0.01 in Snow Light Snow
5:15 PM 22.5 °F 16.3 °F 22.5 °F 100% 29.89 in 1.0 mi NE 4.6 mph - N/A Snow Light Snow
5:35 PM 22.1 °F 12.0 °F 22.1 °F 100% 29.89 in 0.5 mi NE 9.2 mph - N/A Snow Light Snow
5:55 PM 22.1 °F 15.9 °F 22.1 °F 100% 29.89 in 0.8 mi NE 4.6 mph - N/A Snow Light Snow
6:15 PM 21.9 °F 13.4 °F 21.9 °F 100% 29.89 in 0.5 mi NE 6.9 mph - N/A Snow Snow
6:35 PM 22.1 °F 13.7 °F 22.1 °F 100% 29.88 in 1.5 mi NE 6.9 mph - N/A Snow Light Snow
6:55 PM 22.1 °F 12.8 °F 22.1 °F 100% 29.88 in 1.2 mi NE 8.1 mph - N/A Snow Light Snow
7:15 PM 22.5 °F 14.1 °F 22.5 °F 100% 29.88 in 1.5 mi ENE 6.9 mph - 0.01 in Snow Light Snow
7:35 PM 22.8 °F 16.7 °F 22.8 °F 100% 29.88 in 2.0 mi ENE 4.6 mph - 0.01 in Snow Light Snow
7:55 PM 22.8 °F 15.5 °F 22.8 °F 100% 29.87 in 2.0 mi NE 5.8 mph - 0.01 in Snow Light Snow
8:15 PM 23.0 °F 17.0 °F 23.0 °F 100% 29.87 in 2.0 mi ENE 4.6 mph - N/A Snow Light Snow
8:35 PM 23.0 °F 18.4 °F 23.0 °F 100% 29.87 in 0.5 mi NE 3.5 mph - 0.01 in Snow Heavy Snow
8:55 PM 23.0 °F 18.4 °F 23.0 °F 100% 29.86 in 0.8 mi NE 3.5 mph - 0.02 in Snow Snow
9:15 PM 23.4 °F - 23.4 °F 100% 29.86 in 1.5 mi Calm Calm - 0.01 in Snow Light Snow
9:35 PM 23.4 °F - 23.4 °F 100% 29.86 in 1.5 mi Calm Calm - 0.02 in Snow Light Snow
9:55 PM 23.4 °F 18.9 °F 23.4 °F 100% 29.85 in 1.8 mi NNE 3.5 mph - 0.02 in Snow Light Snow
10:15 PM 23.4 °F 16.2 °F 23.4 °F 100% 29.85 in 1.8 mi NNE 5.8 mph - 0.01 in Snow Light Snow
10:35 PM 23.4 °F 17.4 °F 23.4 °F 100% 29.85 in 2.5 mi NNE 4.6 mph - 0.03 in Snow Light Snow
10:55 PM 23.4 °F 17.4 °F 23.4 °F 100% 29.84 in 2.0 mi NE 4.6 mph - 0.04 in Snow Light Snow
11:15 PM 23.0 °F 15.8 °F 23.0 °F 100% 29.84 in 1.8 mi NNE 5.8 mph - 0.02 in Snow Light Snow
11:35 PM 22.8 °F 15.5 °F 22.8 °F 100% 29.84 in 1.5 mi NE 5.8 mph - 0.02 in Snow Light Snow